sat.trackr.live / text

‹ back to catalog

STARLINK-30809

NORAD 58183 · 2023-167J

PAYLOAD ACTIVE UNKNOWN

§ Identity

Operator
Country
US
Launch date
2023-10-30
Launch site
AFETR
Launch vehicle
Mass (kg)
RCS (m²)

Purposes: comms

External: N2YO · Heavens-Above · Gunter

§ Orbital elements

Epoch: 2026-05-25T01:53:03.454944Z

Period
94.27 min
Inclination
43.0020°
Eccentricity
0.0000928
Mean motion
15.27571137 rev/d
Perigee alt
482.4 km
Apogee alt
483.7 km
Semi-major
6,861.2 km
B*
4.0086e-5
RAAN
72.3475°
Arg perigee
254.4796°
Mean anomaly
105.5953°
Rev number
14,266

§ Raw data

STARLINK-308091 58183U 23167J   26145.07851221  .00000841  00000+0  40086-4 0  99922 58183  43.0020  72.3475 0000928 254.4796 105.5953 15.27571137142666

JSON: /api/v1/satellites/58183 · /tle

For live sub-satellite position, see the globe view (requires WebGL).

§ Visibility from observer

Set your observer location to see the next 7 days of passes ≥ 10°. The values pass through the URL so the page stays shareable.

No JS? Fill the form by hand. The geolocation button needs JavaScript.